Location: Muenchen
(48.1800°N, 11.5800°E)
Time: 14:27:31
(UTC+02:00)

Vanguard 2 Rocket - Visible Passes

Search period start: 02 October 2014 00:00
Search period end: 12 October 2014 00:00
Orbit: 553 x 3336 km, 32.9° (Epoch: 30 September)

Date Brightness Start Highest point End Pass type
(mag) Time Alt. Az. Time Alt. Az. Time Alt. Az.
03 Oct 10.8 06:45:33 10° SSE 06:51:39 14° SE 06:58:50 10° ESE visible
06 Oct 10.5 06:04:01 10° SSE 06:08:19 12° SE 06:13:18 10° ESE visible
08 Oct 10.2 06:16:37 10° S 06:23:21 18° SE 06:32:13 10° E visible
09 Oct 10.3 05:23:55 10° SE 05:25:18 10° SE 05:26:46 10° ESE visible
10 Oct 9.9 06:31:03 10° SSW 06:38:36 24° SE 06:49:27 10° E visible
11 Oct 9.9 05:35:17 10° SSE 05:40:26 16° SE 05:47:03 10° ESE visible
